Regional Weather Roundup
Issued by NWS

Home | Current Version | Previous Version | Graphics & Text | Print | Product List | Glossary On
Versions: 1 2 3 4 5 6 7 8 9 10 11 12 13 14 15 16 17 18 19 20 21 22 23 24 25 26 27 28 29 30 31 32 33 34 35 36 37 38 39 40 41 42 43 44 45 46 47 48 49 50
000
ASUS43 KLMK 021402
RWRKY
KENTUCKY REGIONAL WEATHER ROUNDUP
NATIONAL WEATHER SERVICE LOUISVILLE KY
1000 AM EDT THU JUL 02 2015

NOTE "FAIR" INDICATES FEW OR NO CLOUDS BELOW 12,000 FEET
WITH NO SIGNIFICANT WEATHER AND/OR OBSTRUCTIONS TO VISIBILITY.

KYZ001>023-026-027-061>063-070>075-021500-
WESTERN AND SOUTH CENTRAL KENTUCKY

CITY           SKY/WX    TMP DP  RH WIND       PRES   REMARKS
PADUCAH        SUNNY     76  71  85 SE5       29.85F
HENDERSON      CLOUDY    70  66  88 S7        29.87R
OWENSBORO      CLOUDY    72  70  93 S9        29.89S
HOPKINSVILLE   CLOUDY    71  69  93 S7        29.91R
BOWLING GREEN  CLOUDY    71  68  90 S6        29.92R
GLASGOW        NOT AVBL
$$

KYZ024-025-028>034-038-045-046-053-021500-
NORTH CENTRAL KENTUCKY

CITY           SKY/WX    TMP DP  RH WIND       PRES   REMARKS
LOUISVILLE/SDF CLOUDY    72  69  90 SW8       29.89R
LOUISVILLE/LOU LGT RAIN  71  69  93 S3        29.90R FOG
FORT KNOX      CLOUDY    70  68  94 SW6       29.89R
$$

KYZ035>037-039>044-047>052-055>060-089>105-021500-
NORTHEAST KENTUCKY

CITY           SKY/WX    TMP DP  RH WIND       PRES   REMARKS
LEXINGTON      TSTM      68  67  96 S8        29.92R FOG
COVINGTON      LGT RAIN  71  68  90 S5        29.91R FOG
FRANKFORT      CLOUDY    69  67  93 SW5       29.90S
$$

KYZ054-064>069-076>088-106>120-021500-
SOUTHEAST KENTUCKY

CITY           SKY/WX    TMP DP  RH WIND       PRES   REMARKS
JACKSON        LGT RAIN  65  64  97 VRB3      29.96S FOG
LONDON         CLOUDY    69  64  84 SW6       29.96S
SOMERSET       NOT AVBL
MIDDLESBORO    NOT AVBL
MONTICELLO     CLOUDY    69  69 100 S6        29.98S FOG
$$




USA.gov is the U.S. government's official web portal to all federal, state and local government web resources and services.